Theta_e
350 330 322 327 326 325 324 323 322 327 334 341 337 335 339 338 337 335 337 339 341 344 341 340 335 328 329 340 338 334 334 335 337 340 340 329 327 339 339 338 340 338 322
345 341 323 344 338 328 327 325 321 322 325 332 334 336 334 335 333 337 338 340 341 342 341 343 337 331 328 334 332 332 332 336 339 342 344 337 328 337 337 338 339 339 338
345 345 323 336 344 332 336 330 321 319 320 323 328 331 331 329 335 337 339 339 340 340 339 341 335 332 329 327 327 331 333 335 339 341 341 343 326 335 335 337 339 339 341
345 345 337 326 341 332 346 333 325 321 318 320 324 328 328 328 338 337 338 339 339 339 339 337 334 332 330 327 326 328 332 334 339 342 341 341 341 331 337 335 337 339 339
343 344 341 325 340 339 344 335 330 324 320 320 322 322 325 329 338 334 337 339 339 337 338 334 332 332 330 327 330 331 333 338 341 340 340 340 339 332 332 334 335 337 338
344 343 342 329 345 343 336 341 334 328 322 329 326 321 320 329 338 335 336 339 340 337 335 335 332 332 330 327 329 334 338 341 341 340 339 339 338 336 332 329 334 335 337
348 347 344 336 343 338 335 342 337 332 325 327 321 328 325 328 333 335 338 339 339 335 336 334 330 331 331 328 327 329 337 340 339 339 339 338 338 337 335 332 332 335 336
348 348 347 340 340 335 337 343 343 336 328 325 323 330 339 331 332 339 339 339 337 335 334 332 331 330 330 328 326 325 330 338 337 337 337 336 337 336 335 334 332 332 332
348 347 347 342 339 338 337 341 342 340 331 327 323 335 332 336 337 338 339 339 336 333 332 333 334 332 330 328 327 324 327 337 334 335 336 336 334 334 334 336 335 335 334
347 347 346 347 346 344 339 339 339 338 332 330 326 327 337 336 335 336 336 337 336 332 332 334 334 333 331 329 327 322 321 332 333 333 334 334 333 331 333 335 334 333 333
347 346 346 347 347 345 344 344 338 336 331 332 331 327 332 336 338 339 336 338 335 333 332 334 335 334 331 330 325 321 332 332 336 330 333 332 331 331 331 330 329 329 330
346 345 343 344 347 345 345 345 342 340 334 337 339 339 335 340 341 341 340 335 334 333 332 333 334 334 331 332 325 329 331 331 333 330 331 331 330 329 328 327 325 327 328
343 344 342 345 346 344 344 344 343 343 342 342 342 341 340 340 340 341 339 336 332 332 333 333 334 334 335 333 331 330 330 330 331 330 328 328 327 327 327 327 325 326 324
334 342 342 342 342 343 343 343 342 340 341 341 341 341 340 340 341 341 339 340 338 334 335 334 334 335 335 333 331 329 329 328 329 329 326 326 327 327 327 326 326 326 326
331 334 340 342 341 340 341 340 339 339 340 340 341 340 340 339 340 339 339 339 338 335 332 332 333 334 334 331 329 328 328 328 328 326 325 325 326 327 325 325 325 325 323
327 331 335 339 340 338 337 337 337 337 337 338 338 339 338 337 336 336 336 339 336 337 337 333 332 333 332 330 328 328 327 327 327 325 325 326 326 325 325 324 324 324 324
326 327 331 335 338 338 337 337 338 337 328 337 337 336 336 335 336 336 338 339 335 335 334 336 333 333 331 329 328 327 326 326 325 325 326 327 326 325 324 324 323 323 323
325 325 331 334 336 338 336 337 335 324 321 321 324 322 321 328 323 332 334 335 332 334 334 334 334 334 330 328 327 326 326 325 325 325 326 327 326 324 323 323 322 322 322
323 324 330 333 333 334 335 331 321 324 324 325 332 327 321 322 322 321 325 331 329 331 332 333 333 331 331 328 326 326 325 325 324 327 327 326 324 323 323 322 321 321 321
323 324 328 330 326 331 333 334 322 322 322 323 322 322 322 329 327 327 322 327 328 329 330 333 332 331 330 328 326 325 324 324 322 324 325 324 323 323 322 321 321 320 320
323 323 325 326 324 324 324 331 329 322 321 322 323 323 325 325 327 325 324 323 326 327 328 329 330 330 329 326 325 324 323 323 322 323 323 323 323 322 321 319 320 320 319
324 325 326 326 326 325 325 326 328 330 331 331 330 322 329 327 324 325 322 321 325 325 328 328 328 327 327 327 324 323 321 319 321 319 322 322 321 322 320 321 320 319 319
325 326 327 327 327 326 322 322 323 325 328 328 326 325 330 329 327 322 325 322 324 325 325 326 325 326 325 324 324 323 320 317 321 321 320 321 322 322 320 320 320 320 320
325 326 327 327 328 327 324 321 324 326 327 328 328 327 329 329 327 321 321 322 326 326 326 326 325 322 323 324 323 321 320 318 318 316 319 319 321 321 320 319 319 319 319
326 328 328 328 325 326 321 320 325 326 326 327 327 329 328 326 327 323 322 324 326 325 324 325 323 324 324 324 323 321 320 320 316 316 317 319 319 320 319 318 319 318 317
328 328 328 327 325 323 322 321 324 326 326 326 326 327 326 323 322 323 324 326 327 324 323 325 322 324 324 325 323 322 321 320 318 318 315 314 313 317 318 318 318 317 316
Wind_Speed
12 17 16 16 13 12 9 9 8 7 8 6 5 5 5 3 2 3 3 5 7 7 7 10 12 10 11 12 11 11 13 15 16 19 19 19 20 22 22 22 23 26 28
16 16 17 15 13 11 10 8 7 7 7 7 7 6 5 3 1 3 4 6 6 6 7 7 9 9 10 10 11 11 13 14 17 17 17 18 18 19 20 21 22 25 26
16 16 18 17 13 11 10 9 7 6 6 7 7 6 5 3 3 3 4 5 5 5 5 5 7 7 8 10 10 10 12 13 16 13 14 18 17 18 19 19 22 24 26
16 15 16 18 15 11 10 7 7 5 5 6 6 6 5 4 4 3 3 4 5 5 4 3 5 6 8 10 11 9 11 12 16 11 13 13 17 18 19 19 21 23 24
15 14 16 16 15 13 12 9 7 5 5 6 5 6 6 6 5 3 3 4 5 6 3 2 4 6 6 8 10 11 13 15 15 9 10 14 17 18 17 19 19 21 23
13 13 17 16 16 13 10 9 6 5 5 6 5 6 8 8 5 5 4 5 6 4 1 1 3 4 5 7 9 11 14 13 9 9 13 15 18 19 18 16 18 20 21
11 12 14 16 15 14 12 11 7 6 5 6 6 7 6 7 6 5 6 6 7 4 2 1 2 2 3 5 7 8 11 12 8 11 11 13 14 15 17 16 16 17 20
11 11 12 17 16 15 13 13 10 6 5 7 7 8 7 7 6 6 7 8 7 5 3 3 2 1 3 4 5 6 9 11 5 8 8 10 10 11 13 17 15 15 16
11 12 11 14 15 15 14 14 12 9 7 9 9 8 8 7 7 7 7 8 7 5 5 2 2 2 3 4 4 5 10 12 3 5 7 8 8 10 10 15 17 19 18
12 12 12 13 13 13 14 15 14 12 9 10 9 10 9 8 8 8 8 9 8 6 6 5 4 3 2 3 3 6 9 10 2 4 3 6 6 7 8 11 12 12 13
12 11 11 12 14 15 14 14 14 13 11 11 11 12 10 7 7 8 8 10 9 8 8 8 7 5 4 3 3 7 11 5 1 1 4 5 4 5 5 6 5 6 7
13 12 11 12 14 15 14 15 14 13 13 12 10 10 10 8 9 7 12 11 10 9 9 9 10 5 3 2 4 9 7 5 2 1 3 2 1 4 6 8 12 18 21
13 12 13 12 11 12 11 13 12 14 13 13 14 14 13 11 11 11 11 12 14 13 12 12 12 8 7 6 2 3 5 5 3 2 4 1 4 10 14 16 17 19 19
15 14 13 14 13 12 11 9 8 8 9 11 11 13 13 15 15 14 14 10 14 14 14 15 14 11 11 8 5 5 5 6 6 4 6 9 13 14 15 15 17 19 21
15 15 15 13 14 12 11 9 10 9 9 9 9 10 11 12 13 12 16 14 16 15 17 17 16 16 12 10 9 6 7 7 8 4 11 11 12 13 14 14 17 18 19
17 15 14 14 13 12 12 11 11 11 10 10 10 10 11 11 13 12 14 13 14 15 16 17 18 15 11 9 10 9 8 10 6 12 11 14 12 12 14 14 16 17 17
19 17 15 14 13 14 14 12 12 12 12 11 11 12 11 11 11 9 12 13 14 14 16 18 18 16 14 15 19 17 12 10 10 14 11 13 15 11 12 15 15 16 17
20 19 16 15 14 14 12 12 12 12 14 14 11 16 14 15 14 11 12 13 18 17 18 20 19 20 18 17 18 13 12 15 13 16 13 16 14 15 12 12 13 14 15
21 19 19 17 16 15 14 17 16 15 14 14 12 17 15 15 14 15 13 15 18 18 19 19 20 22 22 22 22 21 16 17 21 16 14 16 15 13 14 11 11 11 13
21 20 20 18 17 17 15 15 20 21 22 23 23 23 19 14 14 14 15 14 16 18 18 21 22 22 20 24 25 24 13 15 18 19 15 14 14 13 13 12 12 11 10
22 21 20 19 17 20 19 16 20 21 22 23 24 23 21 19 15 14 15 14 16 18 20 19 21 24 20 25 26 23 15 18 20 16 14 15 13 11 12 12 10 11 9
23 21 20 18 17 19 15 14 14 12 13 14 16 20 19 16 17 15 15 16 16 17 19 21 22 18 19 26 30 30 16 15 18 16 16 15 17 11 13 9 8 8 8
23 21 19 17 16 16 19 18 20 16 15 14 16 16 14 14 17 14 15 14 15 17 19 22 22 19 22 26 31 24 12 9 20 19 19 18 17 15 11 11 12 7 8
21 20 17 15 14 13 18 16 14 11 10 10 8 9 11 14 14 15 16 17 16 17 17 18 16 13 14 28 34 25 21 24 27 20 23 19 18 15 14 15 10 12 10
19 18 16 14 15 15 14 13 11 11 9 8 8 8 11 12 12 14 13 12 15 14 17 17 20 15 13 30 37 30 25 16 23 24 22 25 16 14 13 14 14 12 13
17 16 15 14 13 12 10 10 11 10 10 8 9 9 12 14 15 13 12 10 13 13 15 19 17 13 12 21 34 32 28 22 26 23 17 25 26 21 16 15 16 18 15
Wind_Direction
172 178 168 165 160 158 160 154 159 160 152 154 157 150 140 121 104 88 108 112 115 115 72 70 61 61 68 69 68 72 73 68 59 49 42 53 63 65 63 60 53 48 44
162 176 169 167 166 164 161 157 157 158 160 171 167 161 164 148 112 157 132 129 118 117 90 72 51 52 61 74 71 72 75 70 64 53 39 54 67 68 64 61 58 56 49
161 174 174 172 178 170 164 159 153 157 166 163 173 179 179 166 166 163 145 144 143 133 108 92 38 49 64 73 75 72 78 76 71 72 62 50 64 72 67 62 59 58 54
161 175 175 179 179 169 174 168 160 159 167 170 167 175 181 165 160 169 162 164 152 145 134 61 46 51 61 73 76 77 78 68 66 61 61 71 65 74 65 66 61 61 57
166 175 185 185 178 169 190 179 171 166 164 161 164 174 182 186 172 177 177 165 161 154 146 60 44 56 70 78 79 78 79 76 63 59 68 74 69 71 72 68 66 62 61
170 171 206 192 181 186 194 190 183 188 179 172 170 166 180 188 182 177 196 183 171 162 179 66 39 49 76 84 85 84 85 75 85 69 73 73 73 74 70 68 64 64 64
171 178 211 190 187 197 192 200 196 200 197 186 181 168 175 191 199 193 194 186 174 192 197 304 353 35 83 97 92 93 91 75 80 70 65 69 70 69 69 68 72 68 68
175 182 196 190 199 198 201 208 207 209 215 207 193 181 189 192 200 194 191 188 189 197 226 277 306 335 139 116 95 92 99 93 42 68 60 66 64 62 67 71 73 72 72
179 182 188 195 196 196 205 210 216 219 226 218 202 198 199 197 199 197 199 198 198 212 227 247 243 263 144 130 94 86 113 92 64 82 71 73 69 70 71 81 82 79 78
182 182 186 194 205 206 212 213 218 222 229 219 208 205 205 207 208 209 203 207 208 220 223 222 228 241 193 142 90 85 104 92 23 70 99 83 81 83 91 89 95 93 86
189 188 198 203 201 209 212 232 222 225 224 215 212 208 208 208 231 229 213 215 223 229 225 219 228 231 220 176 108 91 93 112 114 116 101 105 82 102 109 100 107 93 90
199 199 204 213 218 213 210 222 224 227 225 216 220 229 201 212 218 215 235 232 230 230 226 222 231 224 179 204 136 87 85 115 191 182 154 146 23 104 121 110 98 85 79
214 207 202 213 222 226 213 224 220 220 216 217 217 213 191 216 227 220 242 252 229 223 221 221 221 215 161 179 204 134 137 129 147 171 165 228 117 109 101 99 98 92 88
214 213 210 203 217 219 219 223 247 256 243 232 227 227 216 212 212 220 218 226 221 231 224 224 217 190 189 193 191 170 166 148 170 173 144 132 121 115 109 106 105 100 97
216 204 210 209 211 217 224 221 222 229 243 244 255 239 230 232 231 230 220 218 239 239 227 226 222 199 191 190 177 173 168 150 172 162 140 129 131 128 123 114 108 99 96
216 202 208 207 207 210 214 218 216 222 229 229 233 240 258 246 242 238 238 232 239 229 228 231 224 210 187 188 176 167 174 165 165 151 139 145 144 138 131 122 112 103 99
217 214 207 204 205 202 209 215 223 223 220 225 219 225 220 234 234 245 241 242 248 248 236 233 219 193 190 194 172 167 171 172 151 143 159 156 146 145 134 126 121 112 104
215 210 210 201 200 203 206 215 217 227 237 238 243 247 242 238 256 237 244 244 243 234 238 229 221 208 200 195 184 162 181 179 160 149 182 165 148 143 133 135 130 122 115
214 209 206 203 203 205 205 232 236 230 241 242 224 254 250 254 255 258 247 254 253 246 240 236 230 231 222 201 190 181 180 172 155 161 181 160 155 153 149 143 135 128 120
208 206 204 204 210 210 212 232 244 241 242 245 248 250 252 242 250 259 263 246 248 247 241 234 235 226 221 204 193 189 176 164 182 169 168 167 165 168 165 162 150 138 131
205 201 202 202 206 220 216 217 251 251 252 252 256 253 255 235 235 246 257 250 246 243 239 233 226 227 217 204 198 185 174 178 177 184 178 180 174 171 177 175 170 159 151
201 200 200 204 204 216 211 219 231 243 248 245 250 258 232 243 247 251 255 259 244 240 230 231 223 218 226 214 197 175 135 156 182 187 191 195 188 180 189 173 162 181 174
197 196 196 196 197 217 231 231 239 237 237 254 246 243 226 235 245 239 248 248 246 239 235 230 230 243 214 209 196 177 154 172 182 192 200 196 196 184 177 178 189 172 188
193 189 188 191 197 209 232 231 239 231 235 243 248 234 222 221 236 246 248 253 247 238 233 234 222 207 238 211 192 190 178 182 176 189 203 210 200 187 186 195 201 188 188
186 179 179 189 201 214 228 230 220 216 225 225 223 221 214 224 227 259 249 239 232 233 228 215 209 214 214 210 201 195 197 191 189 182 188 203 202 190 196 201 201 200 203
180 169 174 186 196 209 217 220 213 211 215 217 223 219 215 232 242 242 229 212 232 246 225 209 204 219 221 219 204 211 209 196 179 182 191 222 218 213 204 210 217 218 219